Regional Weather Roundup
Issued by NWS Sterling, VA

Home | Current Version | Previous Version | Text Only | Print | Product List | Glossary On
Versions: 1 2 3 4 5 6 7 8 9 10 11 12 13 14 15 16 17 18 19 20 21 22 23 24 25 26 27 28 29 30 31 32 33 34 35 36 37 38 39 40 41 42 43 44 45 46 47 48 49 50
000
ASUS41 KLWX 291010
RWRLWX

REGIONAL WEATHER ROUNDUP
NATIONAL WEATHER SERVICE BALTIMORE MD/WASHINGTON DC
500 AM EST THU JAN 29 2015

Note: "FAIR" indicates few or no clouds below 12,000 feet
with no significant weather and/or obstructions to visibility.
 TC=TEMPERATURE CELSIUS

 * =Non NWS site. Station does not report precipitation (e.g. rain,
    snow, etc.), thunder, or fog.

DCZ001-MDZ009-015-VAZ040>042-051-053>054-291100-
WASHINGTON METRO

CITY           SKY/WX    TMP DP  RH WIND       PRES   REMARKS
WASHINGTON NAT PTCLDY    27   9  46 N6        30.34F
DULLES         PTCLDY    15  10  80 CALM      30.32F
ANDREWS AFB    CLEAR     19  14  79 CALM      30.32S
FT BELVOIR     CLEAR     17  12  82 CALM      30.34F
QUANTICO       CLEAR     21  14  74 NW6       30.36S
COLLEGE PARK*  CLEAR     19  14  79 CALM      30.33S
LEESBURG*      PTCLDY    18  12  79 CALM      30.32F
MANASSAS*      CLEAR     16  14  93 CALM      30.33F
GAITHERSBURG*  MOCLDY    16   7  67 CALM      30.34S

$$

MDZ006>007-011-014-291100-
BALTIMORE METRO

CITY           SKY/WX    TMP DP  RH WIND       PRES   REMARKS
BWI AIRPORT    CLEAR     19   9  65 CALM      30.32F
MD SCIENCE CTR   N/A     26   5  40 MISG      30.32F
MARTIN STATE   CLEAR     23  12  63 CALM      30.35S
ANNAPOLIS      CLEAR     23   9  55 CALM      30.32F
FORT MEADE*    CLEAR     14  12  92 CALM      30.35F

$$

MDZ012-015-019>023-291100-
MARYLAND EASTERN SHORE

CITY           SKY/WX    TMP DP  RH WIND       PRES   REMARKS
OCEAN CITY     CLEAR     21  10  62 NW5       30.32S
SALISBURY      CLEAR     20  13  74 CALM      30.32S
BAY BRIDGE AP*   N/A     28  12  50 NW5       30.33F
CAMBRIDGE*     CLEAR     27  18  69 CALM      30.32F
EASTON*        CLEAR     24  16  73 CALM      30.36S

$$

MDZ017>025-291100-
SOUTHERN MARYLAND

CITY           SKY/WX    TMP DP  RH WIND       PRES   REMARKS
PATUXENT RIVER CLEAR     20  10  65 W5        30.33F
ST INIGOES     CLEAR     22  13  68 CALM      30.33S
LEONARDTOWN*   CLEAR     19  10  68 CALM      30.34F

$$

MDZ003>005-291100-
NORTH CENTRAL MARYLAND

CITY           SKY/WX    TMP DP  RH WIND       PRES   REMARKS
FREDERICK*     MOCLDY    14   9  79 CALM      30.35F
HAGERSTOWN APT PTCLDY    16   5  62 E6        30.29F
WESTMINSTER*   MOCLDY    19   3  49 CALM      30.28F

$$

MDZ501>502-291100-
WESTERN MARYLAND

CITY           SKY/WX    TMP DP  RH WIND       PRES   REMARKS
OAKLAND*       PTCLDY    21   0  39 S9        30.09F WCI  11
CUMBERLAND*    PTCLDY    16  12  86 CALM      30.32F

$$

VAZ025>031-291100-
SHENANDOAH VALLEY

CITY           SKY/WX    TMP DP  RH WIND       PRES   REMARKS
WINCHESTER*    PTCLDY    18  10  73 CALM      30.29S
FRONT ROYAL*   FAIR      16  12  86 CALM      30.29S
LURAY*         FAIR      23  18  80 CALM      30.28F
NEW MARKET*    FAIR      16  13  86 CALM      30.28F
STAUNTON*      PTCLDY    19  15  82 CALM      30.28F
WAYNESBORO*    FAIR      20   9  62 CALM      30.25F

$$

WVZ021-048>050-054>055-291100-
EASTERN WEST VIRGINIA PANHANDLE

CITY           SKY/WX    TMP DP  RH WIND       PRES   REMARKS
MARTINSBURG    PTCLDY    11   5  77 CALM      30.30F
PETERSBURG*    MOCLDY    16  13  89 CALM      30.27F

$$

VAZ036>039-050-291100-
CENTRAL FOOTHILLS

CITY           SKY/WX    TMP DP  RH WIND       PRES   REMARKS
CHARLOTTESVILL CLEAR     20  10  65 CALM      30.30F
CULPEPER*      CLEAR     14  12  92 CALM      30.32S
ORANGE*        CLEAR     18  16  93 CALM      30.33S
GORDONSVILLE*  FAIR      16  13  89 CALM      30.31S
WARRENTON*     FAIR      16  16 100 CALM      30.31F

$$

VAZ055>057-291100-
NORTH AND CENTRAL PIEDMONT

CITY           SKY/WX    TMP DP  RH WIND       PRES   REMARKS
FREDERICKSBRG* CLEAR     20  16  84 CALM      30.33F
STAFFORD*      CLEAR     16  12  86 CALM      30.38S

$$

NCZ024-NYZ072-PAZ021-071-VAZ022-071-291100-
OTHER REGIONAL OBSERVATIONS

CITY           SKY/WX    TMP DP  RH WIND       PRES   REMARKS
NEW YORK CITY  PTCLDY    21   2  43 VRB5      30.31F
PHILADELPHIA   CLEAR     22   3  44 NW6       30.33R
PITTSBURGH     CLOUDY    20  13  74 SE7       30.12F
ROANOKE        MOCLDY    25  15  66 CALM      30.30S
RICHMOND       CLEAR     24  12  60 NE5       30.32F
RALEIGH        MOCLDY    24  16  71 CALM      30.33F

$$

ANZ530>537-291100-
MARINE OBSERVATIONS

STATION/POSITION TIME  TEMP    WIND        PRES
                       AIR SEA DIR/SP/G
                 (UTC) (F)     (DEG/KT/KT) (MB)
THOMAS PT LIGHT  1000   26 35  320/  6/  7 1028.0F
BALT KEY BRIDGE  1000   26     270/  5/  6 1027.0F
COVE POINT       1000   29     350/  9/ 11 1026.8S
LEWISETTA        1000   28 35  280/  2/  3 1026.8F
SOLOMONS ISLAND  1000      37                N/A
PINEY POINT      1000          360/  5/  6   N/A

$$




USA.gov is the U.S. government's official web portal to all federal, state and local government web resources and services.